Monday, July 28, 2014
08:25 UTC
  |  Log In   |  Register Free
Airport Search:

Richmond Municipal Airport
(KRID)

Richmond Municipal Airport Diagram
No Airport Diagram Available

FAA data valid effective July 24, 2014 until September 18, 2014 (unless otherwise noted).

 
 
 
 
 
 
 
 
 
 
 
 
 
 

Current Aviation Weather for Richmond Municipal Airport (KRID)

The most recent METAR observation for KMWO was updated at: 0735 UTC
METAR Summary (Translated METAR)
KMWO
280735Z AUTO 28006KT 10SM CLR 18/14 A2982 RMK AO2 T01800142
KMGY
(8.6 nm NE from KMWO)
280653Z AUTO VRB04KT 10SM CLR 19/14 A2979 RMK AO2 SLP082 T01890139
TAF
No TAF information found within 50 nm of KMWO
  Airport Weather Conditions for KRID

Current weather conditions are
not available for RID


The nearest NOAA weather station
is at MWO, (24.7 nm SE from RID)
  
 Current Weather at MWO
64° F
Fair
West winds at 5.8 mph
MWO NOAA Radar

Pressure: 29.82 in
Humidity: 78%
Wind: West at 5.8 MPH (5 KT)
Dew Point: 57.4°F
Visibility: 10.00 mi


Airport Weather Forecast for KRID

Translated METAR and TAF for KMWO
Translated METAR for KMWO (0818 UTC 28 July 2014)
found at http://aviationweather.gov/adds/metars/
 
METAR text: KMWO 280815Z AUTO 27008KT 10SM CLR 18/14 A2982 RMK AO2 T01800141
Conditions at: KMWO (MIDDLETOWN/HOOK , OH, US) observed 0815 UTC 28 July 2014
Temperature: 18.0°C (64°F)
Dewpoint: 14.1°C (57°F) [RH = 78%]
Pressure (altimeter): 29.82 inches Hg (1009.9 mb)
Winds: from the W (270 degrees) at 9 MPH (8 knots; 4.2 m/s)
Visibility: 10 or more miles (16+ km)
Ceiling: at least 12,000 feet AGL
Clouds: sky clear below 12,000 feet AGL
Weather: automated observation with no human augmentation;
there may or may not be significant weather present at this time
Translated TAF for KMWO

There is no translated TAF available for this airport

Find All Airport Services Find A Hotel Find A Rental Car Find A Golf Course Find A Restaurant $100 Hamburger



FBO's on the Field
FBO Company Facility Photos Services Transportation Aviation Fuel Prices: Prices include tax
Catering Weather Repair Courtesy Rental Type 100LL JetA JetA+ MOGAS 8087
 
Richmond Municipal Airport

This FBO has not yet been rated
FS:Phillips66
Last Updated: Jul-21
Login to update fuel prices
SS:
Contact Richmond Municipal AirportMore FBO Information
 
Add another FBO Facility Photos Catering Weather Repair Courtesy Rental Type 100LL JetA JetA+ MOGAS 8087
Services Transportation Aviation Fuel Prices: Prices include tax


GlobalAir.com Airport Resource Center model-print
model-print
model-print
model-print